Weather History for Langara Island, BC

Change the Weather History Date:

Thursday, February 14, 2013

  Actual Average Record
Temperature  
Mean Temperature 42 °F -  
Max Temperature 46 °F - - ()
Min Temperature 37 °F - - ()
Degree Days  
Heating Degree Days 24    
Moisture  
Dew Point 43 °F    
Average Humidity 94    
Maximum Humidity 97    
Minimum Humidity 87    
Precipitation  
Precipitation 0.00 in - - ()
Sea Level Pressure  
Sea Level Pressure 30.09 in    
Wind  
Wind Speed 8 mph ()    
Max Wind Speed 17 mph    
Max Gust Speed 36 mph    
T = Trace of Precipitation, MM = Missing Value Source: Averaged Metar Reports

Daily Weather History Graph

Daily Weather History Graph

Search for Another Location

Airport:

Trip Planner

Search our weather history database for the weather conditions in past years. The results will help you decide how hot, cold, wet, or windy it might be!

Date:

Astronomy

Feb. 14, 2013 Rise Set
Actual Time 8:13 AM PST 5:59 PM PST
Civil Twilight 7:36 AM PST 6:36 PM PST
Nautical Twilight 6:55 AM PST 7:18 PM PST
Astronomical Twilight 6:14 AM PST 7:59 PM PST
Moon 9:27 AM PST (2/14) No Moon Set
Length of Visible Light 10h 59m
Length of Day
9h 45m
Waxing Crescent, 22% of the Moon is Illuminated
Feb 14
Waxing Crescent
Feb 17
First Quarter
Feb 25
Full
Mar 4
Last Quarter
Mar 11
New

Hourly Weather History & Observations

Time (PST) Temp. Windchill Dew Point Humidity Pressure Visibility Wind Dir Wind Speed Gust Speed Precip Events Conditions
12:00 AM 41.4 °F 36.8 °F 39.2 °F 92% 30.09 in - SE 6.9 mph - N/A   Unknown
1:00 AM 41.5 °F 36.4 °F 39.2 °F 91% 30.08 in - SE 8.1 mph - N/A   Unknown
2:00 AM 41.9 °F 37.5 °F 39.2 °F 90% 30.09 in - SSE 6.9 mph - N/A   Unknown
3:00 AM 41.9 °F 37.5 °F 39.2 °F 90% 30.10 in - SSE 6.9 mph - N/A   Unknown
4:00 AM 42 °F - 39 °F 87% 30.10 in - SSE 8.1 mph - -  
4:00 AM 42.3 °F 37.3 °F 39.4 °F 90% 30.10 in - SSE 8.1 mph - N/A   Unknown
5:00 AM 41.9 °F 35.9 °F 39.7 °F 92% 30.10 in - SSE 10.4 mph - N/A   Unknown
6:00 AM 42.3 °F 38.6 °F 40.5 °F 93% 30.10 in - South 5.8 mph - N/A   Unknown
7:00 AM 42.6 °F 39.0 °F 41.0 °F 94% 30.10 in - South 5.8 mph - N/A   Unknown
8:00 AM 43.5 °F 40.1 °F 42.1 °F 95% 30.11 in - SSW 5.8 mph - N/A   Unknown
9:00 AM 44.2 °F 42.7 °F 42.8 °F 95% 30.10 in - SW 3.5 mph - N/A   Unknown
10:00 AM 45 °F - 43 °F 92% 30.12 in - SW 6.9 mph - -  
10:00 AM 44.6 °F 40.7 °F 43.3 °F 95% 30.12 in - SW 6.9 mph - N/A   Unknown
11:00 AM 44.8 °F 40.4 °F 43.5 °F 95% 30.12 in - SW 8.1 mph 18.4 mph N/A   Unknown
12:00 PM 45.1 °F 40.8 °F 43.9 °F 95% 30.13 in - SW 8.1 mph 19.6 mph N/A   Unknown
1:00 PM 45.3 °F 39.7 °F 44.2 °F 96% 30.12 in - SW 11.5 mph 25.3 mph N/A   Unknown
2:00 PM 45.5 °F 39.2 °F 44.4 °F 96% 30.12 in - WSW 13.8 mph 28.8 mph N/A   Unknown
3:00 PM 45.5 °F 39.9 °F 44.4 °F 96% 30.12 in - SW 11.5 mph 25.3 mph N/A   Unknown
4:00 PM 46 °F - 45 °F 94% 30.10 in - SW 16.1 mph - -  
4:00 PM 45.7 °F 38.8 °F 44.8 °F 97% 30.10 in - SW 16.1 mph 28.8 mph N/A   Unknown
5:00 PM 45.5 °F 39.6 °F 44.6 °F 97% 30.09 in - WSW 12.7 mph 24.2 mph N/A   Unknown
6:00 PM 45.3 °F 39.0 °F 44.4 °F 97% 30.09 in - SW 13.8 mph 29.9 mph N/A   Unknown
7:00 PM 45.3 °F 38.7 °F 44.4 °F 97% 30.08 in - SW 15.0 mph 31.1 mph N/A   Unknown
8:00 PM 45.5 °F 39.6 °F 44.6 °F 97% 30.06 in - SW 12.7 mph 27.6 mph N/A   Unknown
9:00 PM 45.7 °F 39.8 °F 44.8 °F 97% 30.05 in - SW 12.7 mph 26.5 mph N/A   Unknown
10:00 PM 46 °F - 45 °F 96% 30.05 in - SW 13.8 mph - -  
10:00 PM 46.2 °F 40.1 °F 45.3 °F 97% 30.05 in - SW 13.8 mph 31.1 mph N/A   Unknown
11:00 PM 46.6 °F - 45.7 °F 97% 30.05 in - SW 17.3 mph 35.7 mph N/A   Unknown